STARLINK-3887 (52484 NORAD) Tracking and Keplerian Element Data

This shows tracking and keplerian element data for the satellite.

Feedback or suggestion? Click here.




ElementValue
Catalog52484
NameSTARLINK-3887
Epoch Orbit130
Epoch Day192.91667824
Epoch Year2022
RAAN300.7717
Inclination53.2173
Eccentricity0.000163
Argument of Perigee40.458
Mean Anonmoly41.2828
Mean Motion15.30462657
Decay Rate-0.01066864
L11 52484U 22049AK 22192.91667824 -.01066864 00000+0 -38959-1 0 9996
L22 52484 53.2173 300.7717 0001630 40.4580 41.2828 15.30462657 1300

Live tracking and technical data element details for STARLINK-3887 (NORAD 52484). STARLINK-3887 can be tracked NOW for your location showing map with azimuth and elevation plus other details from your city location.

Track the satellite on the map from your city or location and see movement details for azimuth, elevation, latitude, longitude, range, height, and movement on the map or in text.







IsCatalogInMostPopularTable: catalog: 52484, numindb: 7
Update: records affected: 1



GetName: 52484 STARLINK-3887

Hit Count: updated at: Sun, 14 Aug 2022 00:26:32 GMT